• In Germany
  • List of Countries
  • For 7 days
  • Water Temperature
  • Satellite Maps
  • Weather Map
  • Weather Widgets
  • user-avatar
    Login

    Hourly Weather Lotovinovo

    Today, 17 July, Tuesday

    Time Temperature Precipitation Wind Pressure Humidity
    00:00 +19°C° 0 mm 3 mps 736 mmHg 95%
    01:00 +19°C° 0 mm 3 mps 735 mmHg 95%
    02:00 +19°C° 0 mm 2 mps 735 mmHg 96%
    03:00 +19°C° 0.1 mm 3 mps 735 mmHg 96%
    04:00 +19°C° 0.1 mm 4 mps 735 mmHg 96%
    05:00 +19°C° 0.1 mm 4 mps 734 mmHg 96%
    06:00 +20°C° 0 mm 5 mps 735 mmHg 94%
    07:00 +21°C° 0 mm 5 mps 735 mmHg 92%
    08:00 +23°C° 0 mm 5 mps 735 mmHg 89%
    09:00 +23°C° 1.3 mm 5 mps 735 mmHg 87%
    10:00 +25°C° 1.3 mm 5 mps 735 mmHg 84%
    11:00 +26°C° 1.3 mm 5 mps 734 mmHg 82%
    12:00 +27°C° 0.4 mm 5 mps 734 mmHg 78%
    13:00 +28°C° 0.4 mm 5 mps 734 mmHg 73%
    14:00 +29°C° 0.4 mm 5 mps 734 mmHg 68%
    15:00 +28°C° 0.4 mm 5 mps 734 mmHg 72%
    16:00 +27°C° 0.4 mm 5 mps 734 mmHg 77%
    17:00 +27°C° 0.4 mm 4 mps 734 mmHg 81%
    18:00 +25°C° 0.2 mm 4 mps 734 mmHg 84%
    19:00 +23°C° 0.2 mm 4 mps 734 mmHg 86%
    20:00 +22°C° 0.2 mm 4 mps 734 mmHg 89%
    21:00 +21°C° 0 mm 4 mps 734 mmHg 90%
    22:00 +21°C° 0 mm 4 mps 734 mmHg 91%
    23:00 +20°C° 0 mm 4 mps 734 mmHg 92%

    Tomorrow, 18 July, Wednesday

    Time Temperature Precipitation Wind Pressure Humidity
    00:00 +20°C° 0 mm 4 mps 734 mmHg 93%
    01:00 +20°C° 0 mm 4 mps 734 mmHg 95%
    02:00 +19°C° 0 mm 4 mps 734 mmHg 96%
    03:00 +19°C° 0 mm 4 mps 734 mmHg 96%
    04:00 +19°C° 0 mm 4 mps 734 mmHg 96%
    05:00 +19°C° 0 mm 4 mps 733 mmHg 96%
    06:00 +20°C° 0 mm 4 mps 733 mmHg 95%
    07:00 +20°C° 0 mm 4 mps 733 mmHg 94%
    08:00 +20°C° 0 mm 4 mps 733 mmHg 93%
    09:00 +21°C° 0.1 mm 4 mps 734 mmHg 91%
    10:00 +21°C° 0.1 mm 4 mps 734 mmHg 89%
    11:00 +22°C° 0.1 mm 4 mps 734 mmHg 87%
    12:00 +22°C° 0 mm 4 mps 734 mmHg 86%
    13:00 +23°C° 0 mm 4 mps 733 mmHg 84%
    14:00 +23°C° 0 mm 4 mps 733 mmHg 82%
    15:00 +23°C° 0.1 mm 4 mps 733 mmHg 81%
    16:00 +25°C° 0.1 mm 4 mps 733 mmHg 79%
    17:00 +25°C° 0.1 mm 3 mps 733 mmHg 78%
    18:00 +24°C° 0.2 mm 3 mps 733 mmHg 83%
    19:00 +22°C° 0.2 mm 3 mps 733 mmHg 89%
    20:00 +20°C° 0.2 mm 3 mps 733 mmHg 94%
    21:00 +20°C° 0 mm 3 mps 733 mmHg 95%
    22:00 +19°C° 0 mm 3 mps 733 mmHg 96%
    23:00 +19°C° 0 mm 3 mps 733 mmHg 97%

    Day after tomorrow, 19 July, Thursday

    Time Temperature Precipitation Wind Pressure Humidity
    00:00 +18°C° 0 mm 3 mps 732 mmHg 97%
    01:00 +18°C° 0 mm 3 mps 732 mmHg 98%
    02:00 +18°C° 0 mm 3 mps 732 mmHg 98%
    03:00 +18°C° 0 mm 3 mps 732 mmHg 98%
    04:00 +18°C° 0 mm 3 mps 732 mmHg 98%
    05:00 +18°C° 0 mm 3 mps 732 mmHg 97%
    06:00 +19°C° 0.2 mm 3 mps 732 mmHg 96%
    07:00 +19°C° 0.2 mm 3 mps 732 mmHg 95%
    08:00 +20°C° 0.2 mm 4 mps 732 mmHg 94%
    09:00 +20°C° 0.7 mm 4 mps 732 mmHg 93%
    10:00 +20°C° 0.7 mm 4 mps 732 mmHg 93%
    11:00 +21°C° 0.7 mm 4 mps 732 mmHg 92%
    12:00 +21°C° 0.7 mm 4 mps 732 mmHg 90%
    13:00 +22°C° 0.7 mm 4 mps 732 mmHg 88%
    14:00 +22°C° 0.7 mm 4 mps 732 mmHg 87%
    15:00 +22°C° 0.7 mm 4 mps 732 mmHg 87%
    16:00 +22°C° 0.7 mm 4 mps 732 mmHg 88%
    17:00 +22°C° 0.7 mm 4 mps 732 mmHg 89%
    18:00 +21°C° 0.3 mm 3 mps 732 mmHg 91%
    19:00 +20°C° 0.3 mm 3 mps 732 mmHg 94%
    20:00 +20°C° 0.3 mm 3 mps 732 mmHg 96%
    21:00 +19°C° 0.1 mm 2 mps 732 mmHg 97%
    22:00 +19°C° 0.1 mm 2 mps 732 mmHg 97%
    23:00 +18°C° 0.1 mm 2 mps 732 mmHg 98%

    20 July, Friday

    Time Temperature Precipitation Wind Pressure Humidity
    00:00 +18°C° 0 mm 2 mps 732 mmHg 98%
    01:00 +18°C° 0 mm 2 mps 732 mmHg 98%
    02:00 +19°C° 0 mm 1 mps 732 mmHg 98%
    03:00 +19°C° 0 mm 1 mps 732 mmHg 98%
    04:00 +19°C° 0 mm 1 mps 732 mmHg 98%
    05:00 +20°C° 0 mm 1 mps 732 mmHg 98%
    06:00 +20°C° 0 mm 1 mps 733 mmHg 96%
    07:00 +21°C° 0 mm 1 mps 733 mmHg 94%
    08:00 +22°C° 0 mm 1 mps 733 mmHg 93%
    09:00 +23°C° 0.1 mm 2 mps 733 mmHg 89%
    10:00 +24°C° 0.1 mm 2 mps 733 mmHg 86%
    11:00 +24°C° 0.1 mm 2 mps 733 mmHg 83%
    12:00 +25°C° 0.1 mm 2 mps 733 mmHg 79%
    13:00 +26°C° 0.1 mm 2 mps 733 mmHg 75%
    14:00 +27°C° 0.1 mm 2 mps 733 mmHg 71%
    15:00 +27°C° 0.6 mm 2 mps 733 mmHg 75%
    16:00 +27°C° 0.6 mm 2 mps 733 mmHg 79%
    17:00 +26°C° 0.6 mm 3 mps 733 mmHg 83%
    18:00 +25°C° 0.4 mm 2 mps 733 mmHg 86%
    19:00 +24°C° 0.4 mm 2 mps 733 mmHg 90%
    20:00 +21°C° 0.4 mm 2 mps 733 mmHg 93%
    21:00 +21°C° 0.6 mm 2 mps 733 mmHg 94%
    22:00 +21°C° 0.6 mm 1 mps 733 mmHg 95%
    23:00 +21°C° 0.6 mm 1 mps 733 mmHg 96%

    21 July, Saturday

    Time Temperature Precipitation Wind Pressure Humidity
    00:00 +20°C° 0.5 mm 1 mps 733 mmHg 96%
    01:00 +20°C° 0.5 mm 1 mps 733 mmHg 96%
    02:00 +20°C° 0.5 mm 1 mps 733 mmHg 96%
    03:00 +20°C° 0 mm 1 mps 733 mmHg 96%
    04:00 +20°C° 0 mm 1 mps 733 mmHg 97%
    05:00 +20°C° 0 mm 1 mps 733 mmHg 97%
    06:00 +21°C° 0.1 mm 1 mps 733 mmHg 94%
    07:00 +22°C° 0.1 mm 1 mps 733 mmHg 91%
    08:00 +24°C° 0.1 mm 1 mps 733 mmHg 88%
    09:00 +25°C° 0.7 mm 1 mps 734 mmHg 84%
    10:00 +26°C° 0.7 mm 2 mps 734 mmHg 80%
    11:00 +27°C° 0.7 mm 2 mps 734 mmHg 76%
    12:00 +27°C° 0.6 mm 2 mps 733 mmHg 75%
    13:00 +27°C° 0.6 mm 2 mps 733 mmHg 74%
    14:00 +28°C° 0.6 mm 2 mps 733 mmHg 73%
    15:00 +28°C° 0.7 mm 2 mps 733 mmHg 75%
    16:00 +27°C° 0.7 mm 2 mps 733 mmHg 77%
    17:00 +27°C° 0.7 mm 2 mps 733 mmHg 79%
    18:00 +26°C° 0.7 mm 2 mps 733 mmHg 83%
    19:00 +25°C° 0.7 mm 2 mps 733 mmHg 87%
    20:00 +23°C° 0.7 mm 1 mps 733 mmHg 91%
    21:00 +23°C° 0.1 mm 1 mps 733 mmHg 92%
    22:00 +22°C° 0.1 mm 1 mps 733 mmHg 93%
    23:00 +22°C° 0.1 mm 1 mps 733 mmHg 94%

    22 July, Sunday

    Time Temperature Precipitation Wind Pressure Humidity
    00:00 +21°C° 0.7 mm 1 mps 733 mmHg 95%
    01:00 +21°C° 0.7 mm 1 mps 733 mmHg 95%
    02:00 +21°C° 0.7 mm 1 mps 733 mmHg 96%
    03:00 +21°C° 1 mm 1 mps 733 mmHg 96%
    04:00 +21°C° 1 mm 1 mps 733 mmHg 97%
    05:00 +21°C° 1 mm 1 mps 733 mmHg 97%
    06:00 +22°C° 0.4 mm 1 mps 733 mmHg 96%
    07:00 +23°C° 0.4 mm 2 mps 733 mmHg 94%
    08:00 +24°C° 0.4 mm 2 mps 733 mmHg 92%
    09:00 +25°C° 1.7 mm 2 mps 733 mmHg 88%
    10:00 +26°C° 1.7 mm 2 mps 733 mmHg 84%
    11:00 +27°C° 1.7 mm 3 mps 733 mmHg 80%
    12:00 +27°C° 0.9 mm 3 mps 733 mmHg 77%
    13:00 +28°C° 0.9 mm 3 mps 732 mmHg 74%
    14:00 +28°C° 0.9 mm 3 mps 732 mmHg 71%
    15:00 +28°C° 0.4 mm 3 mps 732 mmHg 73%
    16:00 +28°C° 0.4 mm 2 mps 733 mmHg 75%
    17:00 +27°C° 0.4 mm 2 mps 733 mmHg 77%
    18:00 +26°C° 0.1 mm 2 mps 733 mmHg 82%
    19:00 +24°C° 0.1 mm 2 mps 733 mmHg 87%
    20:00 +23°C° 0.1 mm 2 mps 733 mmHg 93%
    21:00 +21°C° 0 mm 2 mps 733 mmHg 94%
    22:00 +21°C° 0 mm 2 mps 733 mmHg 96%
    23:00 +20°C° 0 mm 2 mps 733 mmHg 97%
    Show more